This is the latest recevied weather packets stored in our database for station/object W4MSI. If no packets are shown the sender has not sent any weather packets the latest 10 day(s).
| Time | Temp. | Humidity | Pressure | Rain* | Wind** | Luminosity | Snow |
|---|---|---|---|---|---|---|---|
| 1777644157 | 14.44° C | 67% | 1015.4 hPa | 0 mm | - | 375 W/m² | - |
| 1777643853 | 13.89° C | 66% | 1015.7 hPa | 0 mm | - | 351 W/m² | - |
| 1777643551 | 13.89° C | 67% | 1015.9 hPa | 0 mm | - | 330 W/m² | - |
| 1777643247 | 13.89° C | 69% | 1015.5 hPa | 0 mm | - | 319 W/m² | - |
| 1777642944 | 13.89° C | 70% | 1015.3 hPa | 0 mm | - | 299 W/m² | - |
| 1777642640 | 13.89° C | 70% | 1015.4 hPa | 0 mm | - | 279 W/m² | - |
| 1777642338 | 13.89° C | 72% | 1015.2 hPa | 0 mm | - | 270 W/m² | - |
| 1777642034 | 13.33° C | 72% | 1015.3 hPa | 0 mm | - | 250 W/m² | - |
| 1777641730 | 13.33° C | 73% | 1015.4 hPa | 0 mm | - | 233 W/m² | - |
| 1777641425 | 13.33° C | 71% | 1015.4 hPa | 0 mm | - | 224 W/m² | - |
| 1777641121 | 13.89° C | 71% | 1015.1 hPa | 0 mm | - | 208 W/m² | - |
| 1777640817 | 13.33° C | 71% | 1015.6 hPa | 0 mm | - | 194 W/m² | - |
| 1777640514 | 13.33° C | 72% | 1015.2 hPa | 0 mm | - | 186 W/m² | - |
| 1777640211 | 12.78° C | 70% | 1015.3 hPa | 0 mm | - | 172 W/m² | - |
| 1777639907 | 12.78° C | 71% | 1015.4 hPa | 0 mm | - | 159 W/m² | - |
| 1777639605 | 12.78° C | 72% | 1015.3 hPa | 0 mm | - | 153 W/m² | - |
| 1777639302 | 12.22° C | 69% | 1015.4 hPa | 0 mm | - | 140 W/m² | - |
| 1777638997 | 12.22° C | 69% | 1015.4 hPa | 0 mm | - | 128 W/m² | - |
| 1777638693 | 12.22° C | 66% | 1015.4 hPa | 0 mm | - | 124 W/m² | - |
| 1777638390 | 11.67° C | 69% | 1015.4 hPa | 0 mm | - | 113 W/m² | - |
| 1777638087 | 11.67° C | 66% | 1015.2 hPa | 0 mm | - | 104 W/m² | - |
| 1777637783 | 11.67° C | 67% | 1015.2 hPa | 0 mm | - | 98 W/m² | - |
| 1777637479 | 11.67° C | 67% | 1015.3 hPa | 0 mm | - | 89 W/m² | - |
| 1777637177 | 11.11° C | 65% | 1015 hPa | 0 mm | - | 80 W/m² | - |
| 1777636874 | 10.56° C | 68% | 1014.9 hPa | 0 mm | - | 76 W/m² | - |
* Rain latest hour (hover to see other rain measurements)
** Current wind speed in m/s (hover to see current wind gust speed)